| time (UTC) | temp F | wind direction | speed MPH | gust MPH | rain 1hr in | rain 24hr in | rain mn in | humidity % | barometer mb |
| 20260906122711 | 66 | 174 | 0.0 | 0.0 | 0.00 | 0.04 | 0.04 | 75 | 1017.2 |
| 20260906115710 | 66 | 174 | 0.0 | 0.0 | 0.00 | 0.04 | 0.04 | 75 | 1017.2 |
| 20260906112709 | 66 | 175 | 0.0 | 1.0 | 0.00 | 0.04 | 0.04 | 75 | 1017.4 |
| 20260906105708 | 66 | 223 | 0.0 | 0.0 | 0.00 | 0.04 | 0.04 | 75 | 1016.8 |
| 20260906102707 | 67 | 223 | 0.0 | 0.0 | 0.00 | 0.04 | 0.04 | 75 | 1016.7 |
| 20260906095706 | 67 | 175 | 0.0 | 0.0 | 0.00 | 0.04 | 0.04 | 75 | 1016.6 |
| 20260906092705 | 68 | 175 | 0.0 | 0.0 | 0.00 | 0.04 | 0.04 | 75 | 1016.7 |
| 20260906085704 | 68 | 175 | 0.0 | 1.0 | 0.00 | 0.04 | 0.04 | 75 | 1017.1 |
| 20260906082703 | 69 | 177 | 0.0 | 0.0 | 0.00 | 0.04 | 0.04 | 75 | 1017.1 |
| 20260906075702 | 69 | 175 | 0.0 | 0.0 | 0.00 | 0.04 | 0.04 | 75 | 1016.9 |
| 20260906072701 | 69 | 223 | 0.0 | 0.0 | 0.00 | 0.04 | 0.04 | 75 | 1016.5 |
| 20260906065700 | 70 | 223 | 1.0 | 2.0 | 0.00 | 0.04 | 0.04 | 75 | 1017.2 |
| 20260906062659 | 71 | 279 | 2.0 | 2.0 | 0.00 | 0.04 | 0.04 | 75 | 1018.4 |
| 20260906055658 | 70 | 299 | 4.0 | 6.0 | 0.00 | 0.04 | 0.04 | 75 | 1018.4 |
| 20260906052657 | 69 | 223 | 0.0 | 1.0 | 0.00 | 0.04 | 0.04 | 75 | 1017.2 |
| 20260906045656 | 70 | 175 | 0.0 | 2.0 | 0.00 | 0.04 | 0.04 | 75 | 1017.0 |
| 20260906042655 | 69 | 133 | 0.0 | 1.0 | 0.00 | 0.04 | 0.04 | 75 | 1017.4 |
| 20260906035654 | 70 | 174 | 0.0 | 0.0 | 0.00 | 0.04 | 0.04 | 75 | 1017.5 |
| 20260906032653 | 70 | 178 | 0.0 | 2.0 | 0.00 | 0.04 | 0.04 | 75 | 1017.2 |
| 20260906025652 | 70 | 175 | 0.0 | 0.0 | 0.00 | 0.04 | 0.04 | 75 | 1017.2 |
| 20260906022651 | 70 | 175 | 0.0 | 0.0 | 0.00 | 0.04 | 0.04 | 75 | 1016.9 |
| 20260906015650 | 70 | 175 | 0.0 | 0.0 | 0.00 | 0.04 | 0.04 | 75 | 1016.6 |
| 20260906012649 | 70 | 177 | 0.0 | 0.0 | 0.00 | 0.04 | 0.04 | 75 | 1016.5 |
| 20260906005648 | 71 | 133 | 0.0 | 0.0 | 0.00 | 0.04 | 0.04 | 75 | 1016.4 |
| 20260906002647 | 72 | 223 | 0.0 | 0.0 | 0.00 | 0.04 | 0.04 | 75 | 1016.4 |
| 20260905235646 | 75 | 175 | 0.0 | 0.0 | 0.00 | 0.04 | 0.04 | 75 | 1016.5 |
| 20260905232645 | 75 | 175 | 0.0 | 0.0 | 0.00 | 0.04 | 0.04 | 75 | 1016.5 |
| 20260905225644 | 75 | 174 | 0.0 | 1.0 | 0.00 | 0.04 | 0.04 | 75 | 1016.3 |
| 20260905222643 | 75 | 175 | 0.0 | 0.0 | 0.00 | 0.04 | 0.04 | 75 | 1016.4 |
| 20260905215642 | 78 | 286 | 2.0 | 3.0 | 0.00 | 0.04 | 0.04 | 75 | 1017.1 |
| 20260905205640 | 91 | 92 | 1.0 | 3.0 | 0.00 | 0.04 | 0.04 | 75 | 1016.8 |
| 20260905202639 | 92 | 127 | 1.0 | 3.0 | 0.00 | 0.04 | 0.04 | 75 | 1016.4 |
| 20260905195638 | 94 | 9 | 4.0 | 4.0 | 0.00 | 0.04 | 0.04 | 75 | 1017.0 |
| 20260905192637 | 93 | 355 | 4.0 | 5.0 | 0.00 | 0.04 | 0.04 | 75 | 1017.2 |
| 20260905185636 | 93 | 316 | 1.0 | 4.0 | 0.00 | 0.04 | 0.04 | 75 | 1017.5 |
| 20260905182635 | 93 | 347 | 3.0 | 6.0 | 0.00 | 0.04 | 0.04 | 75 | 1017.8 |
| 20260905175634 | 92 | 4 | 3.0 | 4.0 | 0.00 | 0.04 | 0.04 | 75 | 1018.1 |
| 20260905172633 | 91 | 315 | 2.0 | 4.0 | 0.00 | 0.04 | 0.04 | 75 | 1018.4 |
| 20260905165632 | 90 | 174 | 1.0 | 4.0 | 0.00 | 0.04 | 0.04 | 75 | 1018.5 |
| 20260905162631 | 89 | 289 | 3.0 | 4.0 | 0.00 | 0.04 | 0.04 | 75 | 1018.9 |
| 20260905155630 | 87 | 172 | 1.0 | 2.0 | 0.00 | 0.04 | 0.04 | 75 | 1019.0 |
| 20260905152629 | 86 | 175 | 2.0 | 3.0 | 0.00 | 0.04 | 0.04 | 75 | 1019.2 |
| 20260905145628 | 86 | 315 | 2.0 | 3.0 | 0.00 | 0.04 | 0.04 | 75 | 1019.3 |
| 20260905142627 | 82 | 360 | 1.0 | 2.0 | 0.00 | 0.04 | 0.04 | 75 | 1019.3 |
| 20260905135626 | 78 | 172 | 0.0 | 0.0 | 0.00 | 0.04 | 0.04 | 75 | 1019.4 |
| 20260905132625 | 75 | 172 | 0.0 | 0.0 | 0.00 | 0.04 | 0.04 | 75 | 1019.4 |
| 20260905125624 | 71 | 174 | 0.0 | 0.0 | 0.00 | 0.04 | 0.04 | 75 | 1019.6 |